DELTA 1 DEB, 7069

Orbit data source: Space-Track

DELTA 1 DEB, 7069 is space debris in SSO originally from a launch on Tue, 06 Nov 1973 UTC launched from the Air Force Western Test Range (AFWTR). Debris objects in space refer to the collection of defunct objects orbiting the Earth. Examples of debris include non-operational satellites, rocket bodies, and fragments generated from explosions, collisions, or faulty payload assembly.

Loading next visibility...
Identifier
7069, 1973-086BM
Orbit
SSO
Country
Flag of USUS
Related business
Manufacturer
Unknown
Mission
Spacecraft
Bus & Motor
Unknown
Mass
Unknown
Launch date (UTC)
1973-11-06 (53 years ago)
Launch vehicle
Unknown
Launch site
Air Force Western Test Range (AFWTR)
Object type
Payload
Rocket body
Debris
Shape & HBR
Unknown shape, 0.1 m
Radar Cross Section
Medium (>0.1 m² and <1 m²)

Expand to show TLE details & history
Last TLE update: 20 hours ago

TLE from 20 hours ago
0 DELTA 1 DEB
1 07069U 73086BM  26206.57974761  .00001492  00000-0  16852-2 0  9998
2 07069 102.7780 260.2983 0241958 291.4305  66.1173 13.61364373567584
Epoch: 2026-07-25T13:54Z
TLE epoch observation values (Epoch: 2026-07-25T13:54:50.193Z)
Latitude
-0.00005°
Longitude
108.29918°
Altitude
964.509 km
Speed
7.404 km/s
True Right ascension
17h 21m 11s
True Declination
0° 00' 00"
Sunlit
Object was in full shadow at epoch
Visualization orbit readout
Latitude
Unknown
Longitude
Unknown
Altitude
Unknown
Speed
Unknown
Apparent Right ascension
Unknown
Apparent Declination
Unknown
Sunlit
N/A
Visualization observer readout
Local Sidereal Time
23:16:01
Azimuth
Unknown
Elevation
Unknown
Doppler factor
Unknown
Orbital elements
Apogee altitude
1,207.407 km
Perigee altitude
849.002 km
Semi-major axis
7,406.342 km
Eccentricity
0.0242
Inclination
102.778°
RAAN
260.2983°
Arg. of periapsis
291.4305°
True anomaly
68.68308°
Mean anomaly
66.1173°
Eccentric anomaly
67.39714°
Mean motion
3.40516 °/min
Orbital period
105.72 mins
BSTAR
0.0016852
Loading maneuver chart data...
Computing Atmospheric mass density...
Loading historical data...
Loading historical data...
Loading historical data...
Loading historical data...
Loading historical data...
Loading historical data...
Loading historical data...

Documentation

Showing up to 5 results
|